"read_dt","SO2 (ppb)","flags","PMT voltage (V)","lamp voltage (V)","lamp intensity (Hz)","internal temp (C)","react chamber temp (C)","sample flow (l/min)","pres (mmHg)","SO2 bkg (ppb)","SO2 coefficient"
2015-01-13 00:00:00,2467E-3,5C000000,-0724,0837,12131,027.8,045.4,0.454,748.7,01.17,0.508
2015-01-13 00:01:00,2549E-3,5C000000,-0724,0836,11754,027.9,045.4,0.454,748.7,01.17,0.508
2015-01-13 00:02:00,2423E-3,5C000000,-0724,0836,12167,027.9,045.4,0.454,748.7,01.17,0.508
2015-01-13 00:03:00,2461E-3,5C000000,-0724,0837,12198,027.9,045.4,0.454,748.8,01.17,0.508
2015-01-13 00:04:00,2575E-3,5C000000,-0724,0836,12041,027.9,045.4,0.455,748.7,01.17,0.508
2015-01-13 00:05:00,2504E-3,5C000000,-0724,0837,12247,027.8,045.4,0.455,748.8,01.17,0.508
2015-01-13 00:06:00,2428E-3,5C000000,-0724,0837,12129,027.8,045.4,0.455,748.8,01.17,0.508
2015-01-13 00:07:00,2516E-3,5C000000,-0724,0837,12230,027.9,045.4,0.454,748.8,01.17,0.508
2015-01-13 00:08:00,2428E-3,5C000000,-0724,0836,12163,027.9,045.4,0.454,748.7,01.17,0.508
2015-01-13 00:09:00,2538E-3,5C000000,-0724,0837,12117,027.9,045.4,0.454,748.7,01.17,0.508
2015-01-13 00:10:00,2428E-3,5C000000,-0724,0837,12084,027.9,045.4,0.455,748.7,01.17,0.508
2015-01-13 00:11:00,2553E-3,5C000000,-0724,0836,11912,027.9,045.4,0.455,748.7,01.17,0.508
2015-01-13 00:12:00,2356E-3,5C000000,-0724,0837,11961,027.9,045.4,0.454,748.7,01.17,0.508
2015-01-13 00:13:00,2544E-3,5C000000,-0724,0835,12071,027.9,045.4,0.454,748.7,01.17,0.508
2015-01-13 00:14:00,2366E-3,5C000000,-0724,0838,12157,027.9,045.4,0.454,748.7,01.17,0.508
2015-01-13 00:15:00,2416E-3,5C000000,-0724,0837,12113,027.9,045.4,0.454,748.7,01.17,0.508
2015-01-13 00:16:00,2440E-3,5C000000,-0724,0836,12018,027.9,045.4,0.454,748.7,01.17,0.508
2015-01-13 00:17:00,2476E-3,5C000000,-0724,0837,12050,027.9,045.4,0.455,748.7,01.17,0.508
2015-01-13 00:18:00,2308E-3,5C000000,-0724,0836,11930,027.9,045.4,0.455,748.7,01.17,0.508
2015-01-13 00:19:00,2428E-3,5C000000,-0724,0836,11994,027.9,045.4,0.454,748.7,01.17,0.508
2015-01-13 00:20:00,2646E-3,5C000000,-0724,0836,12283,027.9,045.4,0.454,748.7,01.17,0.508
2015-01-13 00:21:00,2343E-3,5C000000,-0724,0838,12104,027.9,045.5,0.454,748.7,01.17,0.508
2015-01-13 00:22:00,2402E-3,5C000000,-0724,0836,11951,027.9,045.4,0.454,748.7,01.17,0.508
2015-01-13 00:23:00,2590E-3,5C000000,-0724,0836,12111,027.9,045.4,0.455,748.7,01.17,0.508
2015-01-13 00:24:00,2450E-3,5C000000,-0724,0836,12015,027.9,045.4,0.455,748.7,01.17,0.508
2015-01-13 00:25:00,2388E-3,5C000000,-0724,0838,12187,027.9,045.4,0.454,748.6,01.17,0.508
2015-01-13 00:26:00,2382E-3,5C000000,-0724,0837,12142,027.9,045.4,0.454,748.6,01.17,0.508
2015-01-13 00:27:00,2461E-3,5C000000,-0724,0836,12184,027.9,045.4,0.454,748.6,01.17,0.508
2015-01-13 00:28:00,2398E-3,5C000000,-0724,0836,12008,027.9,045.4,0.454,748.6,01.17,0.508
2015-01-13 00:29:00,2437E-3,5C000000,-0724,0837,12143,027.9,045.4,0.454,748.6,01.17,0.508
2015-01-13 00:30:00,2488E-3,5C000000,-0724,0836,12120,027.9,045.4,0.454,748.6,01.17,0.508
2015-01-13 00:31:00,2522E-3,5C000000,-0724,0837,12156,027.9,045.4,0.455,748.6,01.17,0.508
2015-01-13 00:32:00,2442E-3,5C000000,-0724,0836,12186,027.9,045.4,0.454,748.6,01.17,0.508
2015-01-13 00:33:00,2535E-3,5C000000,-0724,0835,12139,027.9,045.4,0.454,748.6,01.17,0.508
2015-01-13 00:34:00,2471E-3,5C000000,-0724,0836,12010,028.0,045.4,0.454,748.6,01.17,0.508
2015-01-13 00:35:00,2526E-3,5C000000,-0724,0836,11994,028.0,045.4,0.454,748.6,01.17,0.508
2015-01-13 00:36:00,2431E-3,5C000000,-0724,0837,12035,028.0,045.4,0.454,748.6,01.17,0.508
2015-01-13 00:37:00,2439E-3,5C000000,-0724,0837,12117,027.9,045.4,0.455,748.6,01.17,0.508
2015-01-13 00:38:00,2481E-3,5C000000,-0724,0836,12191,027.9,045.4,0.455,748.6,01.17,0.508
2015-01-13 00:39:00,2515E-3,5C000000,-0724,0837,12217,027.9,045.4,0.454,748.6,01.17,0.508
2015-01-13 00:40:00,2560E-3,5C000000,-0724,0836,12142,027.9,045.4,0.454,748.6,01.17,0.508
2015-01-13 00:41:00,2581E-3,5C000000,-0724,0837,12251,027.9,045.4,0.454,748.6,01.17,0.508
2015-01-13 00:42:00,2454E-3,5C000000,-0724,0836,12219,027.9,045.4,0.454,748.6,01.17,0.508
2015-01-13 00:43:00,2561E-3,5C000000,-0724,0837,12173,027.9,045.4,0.455,748.6,01.17,0.508
2015-01-13 00:44:00,2500E-3,5C000000,-0724,0836,12186,027.9,045.4,0.455,748.7,01.17,0.508
2015-01-13 00:45:00,2488E-3,5C000000,-0724,0837,12065,027.9,045.4,0.455,748.7,01.17,0.508
2015-01-13 00:46:00,2480E-3,5C000000,-0724,0837,12173,027.9,045.4,0.454,748.6,01.17,0.508
2015-01-13 00:47:00,2452E-3,5C000000,-0724,0836,12060,027.9,045.4,0.454,748.7,01.17,0.508
2015-01-13 00:48:00,2413E-3,5C000000,-0724,0838,11979,027.9,045.4,0.454,748.7,01.17,0.508
2015-01-13 00:49:00,2539E-3,5C000000,-0724,0837,12166,027.9,045.4,0.454,748.7,01.17,0.508
2015-01-13 00:50:00,2414E-3,5C000000,-0724,0835,12173,027.9,045.4,0.454,748.7,01.17,0.508
2015-01-13 00:51:00,2457E-3,5C000000,-0724,0836,12186,027.9,045.5,0.454,748.8,01.17,0.508
2015-01-13 00:52:00,2336E-3,5C000000,-0724,0837,12026,027.9,045.5,0.454,748.7,01.17,0.508
2015-01-13 00:53:00,2443E-3,5C000000,-0724,0836,12085,027.9,045.4,0.454,748.7,01.17,0.508
2015-01-13 00:54:00,2432E-3,5C000000,-0724,0837,12173,028.0,045.4,0.455,748.7,01.17,0.508
2015-01-13 00:55:00,2461E-3,5C000000,-0724,0837,12208,028.0,045.4,0.454,748.7,01.17,0.508
2015-01-13 00:56:00,2483E-3,5C000000,-0724,0837,12161,028.0,045.4,0.454,748.7,01.17,0.508
2015-01-13 00:57:00,2341E-3,5C000000,-0724,0836,12227,028.0,045.4,0.454,748.7,01.17,0.508
2015-01-13 00:58:00,2452E-3,5C000000,-0724,0837,12190,028.0,045.5,0.454,748.7,01.17,0.508
2015-01-13 00:59:00,2434E-3,5C000000,-0724,0838,12001,027.9,045.4,0.454,748.8,01.17,0.508
2015-01-13 01:00:00,2426E-3,5C000000,-0724,0837,12180,028.0,045.4,0.454,748.7,01.17,0.508
2015-01-13 01:01:00,2449E-3,5C000000,-0724,0836,12213,028.0,045.4,0.455,748.8,01.17,0.508
2015-01-13 01:02:00,2371E-3,5C000000,-0724,0837,12164,028.0,045.4,0.455,748.8,01.17,0.508
2015-01-13 01:03:00,2323E-3,5C000000,-0724,0837,12131,027.9,045.4,0.454,748.8,01.17,0.508
2015-01-13 01:04:00,2465E-3,5C000000,-0724,0837,12257,028.0,045.4,0.454,748.8,01.17,0.508
2015-01-13 01:05:00,2456E-3,5C000000,-0724,0837,12135,028.0,045.4,0.454,748.8,01.17,0.508
2015-01-13 01:06:00,2487E-3,5C000000,-0724,0837,12116,028.0,045.4,0.454,748.8,01.17,0.508
2015-01-13 01:07:00,2353E-3,5C000000,-0724,0837,12168,028.0,045.4,0.455,748.8,01.17,0.508
2015-01-13 01:08:00,2417E-3,5C000000,-0724,0837,11986,028.0,045.4,0.454,748.8,01.17,0.508
2015-01-13 01:09:00,2424E-3,5C000000,-0724,0836,12075,027.9,045.4,0.454,748.8,01.17,0.508
2015-01-13 01:10:00,2289E-3,5C000000,-0724,0836,12281,028.0,045.4,0.454,748.8,01.17,0.508
2015-01-13 01:11:00,2337E-3,5C000000,-0724,0837,12087,028.0,045.4,0.454,748.8,01.17,0.508
2015-01-13 01:12:00,2387E-3,5C000000,-0724,0836,12218,028.0,045.4,0.454,748.8,01.17,0.508
2015-01-13 01:13:00,2337E-3,5C000000,-0724,0836,12005,027.9,045.4,0.454,748.8,01.17,0.508
2015-01-13 01:14:00,2377E-3,5C000000,-0724,0837,11925,027.9,045.4,0.454,748.8,01.17,0.508
2015-01-13 01:15:00,2557E-3,5C000000,-0724,0837,12152,027.9,045.4,0.454,748.8,01.17,0.508
2015-01-13 01:16:00,2335E-3,5C000000,-0724,0837,12188,027.9,045.4,0.454,748.9,01.17,0.508
2015-01-13 01:17:00,2512E-3,5C000000,-0724,0837,12302,028.0,045.5,0.454,748.9,01.17,0.508
2015-01-13 01:18:00,2202E-3,5C000000,-0724,0837,12231,028.0,045.5,0.454,748.9,01.17,0.508
2015-01-13 01:19:00,2277E-3,5C000000,-0724,0836,12192,028.0,045.4,0.455,748.9,01.17,0.508
2015-01-13 01:20:00,2276E-3,5C000000,-0724,0837,11973,028.0,045.4,0.454,748.9,01.17,0.508
2015-01-13 01:21:00,2283E-3,5C000000,-0724,0837,12082,028.0,045.4,0.454,748.9,01.17,0.508
2015-01-13 01:22:00,2431E-3,5C000000,-0724,0837,12127,028.0,045.4,0.454,748.9,01.17,0.508
2015-01-13 01:23:00,2445E-3,5C000000,-0724,0837,12142,028.0,045.4,0.454,748.9,01.17,0.508
2015-01-13 01:24:00,2441E-3,5C000000,-0724,0837,12130,028.0,045.4,0.454,748.9,01.17,0.508
2015-01-13 01:25:00,2570E-3,5C000000,-0724,0837,12156,028.0,045.4,0.454,748.9,01.17,0.508
2015-01-13 01:26:00,2264E-3,5C000000,-0724,0838,11986,028.0,045.4,0.454,748.9,01.17,0.508
2015-01-13 01:27:00,2464E-3,5C000000,-0724,0838,12112,028.1,045.4,0.454,748.9,01.17,0.508
2015-01-13 01:28:00,2450E-3,5C000000,-0724,0837,12151,028.0,045.4,0.454,748.9,01.17,0.508
2015-01-13 01:29:00,2450E-3,5C000000,-0724,0837,12125,028.1,045.4,0.454,748.9,01.17,0.508
2015-01-13 01:30:00,2286E-3,5C000000,-0724,0837,12017,028.0,045.4,0.454,748.9,01.17,0.508
2015-01-13 01:31:00,2457E-3,5C000000,-0724,0837,12235,028.1,045.4,0.454,748.9,01.17,0.508
2015-01-13 01:32:00,2346E-3,5C000000,-0724,0836,12247,028.1,045.4,0.454,748.9,01.17,0.508
2015-01-13 01:33:00,2347E-3,5C000000,-0724,0837,12180,028.1,045.4,0.454,748.9,01.17,0.508
2015-01-13 01:34:00,2308E-3,5C000000,-0724,0837,12023,028.1,045.4,0.454,748.8,01.17,0.508
2015-01-13 01:35:00,2425E-3,5C000000,-0724,0837,12249,028.1,045.4,0.454,748.8,01.17,0.508
2015-01-13 01:36:00,2420E-3,5C000000,-0724,0836,12014,028.1,045.4,0.454,748.8,01.17,0.508
2015-01-13 01:37:00,2419E-3,5C000000,-0724,0837,11996,028.1,045.4,0.454,748.8,01.17,0.508
2015-01-13 01:38:00,2247E-3,5C000000,-0724,0836,12215,028.1,045.4,0.454,748.8,01.17,0.508
2015-01-13 01:39:00,2261E-3,5C000000,-0724,0836,12142,028.1,045.4,0.454,748.8,01.17,0.508
2015-01-13 01:40:00,2344E-3,5C000000,-0724,0836,12162,028.1,045.5,0.454,748.8,01.17,0.508
2015-01-13 01:41:00,2367E-3,5C000000,-0724,0837,12124,028.1,045.4,0.454,748.8,01.17,0.508
2015-01-13 01:42:00,2425E-3,5C000000,-0724,0837,12212,028.1,045.5,0.454,748.8,01.17,0.508
2015-01-13 01:43:00,2402E-3,5C000000,-0724,0837,11997,028.1,045.4,0.454,748.8,01.17,0.508
2015-01-13 01:44:00,2419E-3,5C000000,-0724,0837,12018,028.2,045.4,0.454,748.9,01.17,0.508
2015-01-13 01:45:00,2287E-3,5C000000,-0724,0837,12139,028.2,045.4,0.454,748.9,01.17,0.508
2015-01-13 01:46:00,2310E-3,5C000000,-0724,0838,12124,028.1,045.4,0.454,748.9,01.17,0.508
2015-01-13 01:47:00,2301E-3,5C000000,-0724,0838,12034,028.1,045.4,0.454,748.9,01.17,0.508
2015-01-13 01:48:00,2353E-3,5C000000,-0724,0837,12004,028.1,045.4,0.454,748.9,01.17,0.508
2015-01-13 01:49:00,2474E-3,5C000000,-0724,0837,12216,028.1,045.4,0.454,748.9,01.17,0.508
2015-01-13 01:50:00,2337E-3,5C000000,-0724,0837,12120,028.0,045.4,0.454,748.9,01.17,0.508
2015-01-13 01:51:00,2260E-3,5C000000,-0724,0837,12075,028.1,045.4,0.454,748.8,01.17,0.508
2015-01-13 01:52:00,2284E-3,5C000000,-0724,0838,12099,028.1,045.4,0.454,748.8,01.17,0.508
2015-01-13 01:53:00,2337E-3,5C000000,-0724,0837,12105,028.1,045.4,0.454,748.8,01.17,0.508
2015-01-13 01:54:00,2502E-3,5C000000,-0724,0837,12005,028.1,045.5,0.454,748.8,01.17,0.508
2015-01-13 01:55:00,2378E-3,5C000000,-0724,0838,12263,028.1,045.5,0.454,748.9,01.17,0.508
2015-01-13 01:56:00,2318E-3,5C000000,-0724,0837,12085,028.1,045.4,0.454,748.9,01.17,0.508
2015-01-13 01:57:00,2404E-3,5C000000,-0724,0837,12257,028.1,045.4,0.454,748.9,01.17,0.508
2015-01-13 01:58:00,2429E-3,5C000000,-0724,0837,12109,028.2,045.4,0.454,748.9,01.17,0.508
2015-01-13 01:59:00,2276E-3,5C000000,-0724,0837,12267,028.2,045.4,0.454,748.9,01.17,0.508
2015-01-13 02:00:00,2318E-3,5C000000,-0724,0837,12247,028.1,045.4,0.454,748.9,01.17,0.508
2015-01-13 02:01:00,2266E-3,5C000000,-0724,0837,12116,028.2,045.4,0.454,748.9,01.17,0.508
2015-01-13 02:02:00,2355E-3,5C000000,-0724,0837,11922,028.2,045.4,0.454,748.9,01.17,0.508
2015-01-13 02:03:00,2291E-3,5C000000,-0724,0837,12061,028.2,045.4,0.454,748.9,01.17,0.508
2015-01-13 02:04:00,2529E-3,5C000000,-0724,0837,12146,028.2,045.4,0.454,748.9,01.17,0.508
2015-01-13 02:05:00,2288E-3,5C000000,-0724,0836,12103,028.2,045.5,0.454,748.9,01.17,0.508
2015-01-13 02:06:00,2253E-3,5C000000,-0724,0837,12083,028.2,045.4,0.454,748.9,01.17,0.508
2015-01-13 02:07:00,2312E-3,5C000000,-0724,0836,12048,028.2,045.4,0.454,748.9,01.17,0.508
2015-01-13 02:08:00,2385E-3,5C000000,-0724,0837,12165,028.2,045.4,0.454,748.9,01.17,0.508
2015-01-13 02:09:00,2403E-3,5C000000,-0724,0837,12213,028.2,045.4,0.454,748.9,01.17,0.508
2015-01-13 02:10:00,2356E-3,5C000000,-0724,0836,12205,028.1,045.5,0.454,748.9,01.17,0.508
2015-01-13 02:11:00,2283E-3,5C000000,-0724,0836,12067,028.2,045.5,0.454,748.9,01.17,0.508
2015-01-13 02:12:00,2376E-3,5C000000,-0724,0836,12007,028.2,045.4,0.454,748.9,01.17,0.508
2015-01-13 02:13:00,2352E-3,5C000000,-0724,0836,12120,028.2,045.4,0.454,748.9,01.17,0.508
2015-01-13 02:14:00,2549E-3,5C000000,-0724,0838,12194,028.1,045.4,0.454,748.9,01.17,0.508
2015-01-13 02:15:00,2268E-3,5C000000,-0724,0837,12028,028.2,045.4,0.454,748.9,01.17,0.508
2015-01-13 02:16:00,2361E-3,5C000000,-0724,0837,12078,028.2,045.5,0.454,748.9,01.17,0.508
2015-01-13 02:17:00,2259E-3,5C000000,-0724,0837,12263,028.2,045.5,0.454,748.9,01.17,0.508
2015-01-13 02:18:00,2350E-3,5C000000,-0724,0837,11955,028.2,045.4,0.454,748.9,01.17,0.508
2015-01-13 02:19:00,2440E-3,5C000000,-0724,0837,12255,028.1,045.4,0.454,748.9,01.17,0.508
2015-01-13 02:20:00,2310E-3,5C000000,-0724,0837,12231,028.1,045.4,0.454,748.9,01.17,0.508
2015-01-13 02:21:00,2181E-3,5C000000,-0724,0837,12135,028.2,045.4,0.454,748.9,01.17,0.508
2015-01-13 02:22:00,2365E-3,5C000000,-0724,0837,11866,028.1,045.4,0.454,748.9,01.17,0.508
2015-01-13 02:23:00,2187E-3,5C000000,-0724,0838,12019,028.2,045.5,0.454,748.9,01.17,0.508
2015-01-13 02:24:00,2318E-3,5C000000,-0724,0837,12178,028.2,045.4,0.454,748.9,01.17,0.508
2015-01-13 02:25:00,2417E-3,5C000000,-0724,0837,12241,028.2,045.4,0.454,748.9,01.17,0.508
2015-01-13 02:26:00,2357E-3,5C000000,-0724,0836,12103,028.2,045.5,0.454,748.9,01.17,0.508
2015-01-13 02:27:00,2454E-3,5C000000,-0724,0837,12063,028.2,045.4,0.454,748.9,01.17,0.508
2015-01-13 02:28:00,2299E-3,5C000000,-0724,0837,12098,028.2,045.4,0.454,748.9,01.17,0.508
2015-01-13 02:29:00,2286E-3,5C000000,-0724,0836,12108,028.2,045.4,0.454,748.9,01.17,0.508
2015-01-13 02:30:00,2366E-3,5C000000,-0724,0836,12155,028.2,045.5,0.454,748.9,01.17,0.508
2015-01-13 02:31:00,2330E-3,5C000000,-0724,0839,12177,028.2,045.4,0.454,748.9,01.17,0.508
2015-01-13 02:32:00,2444E-3,5C000000,-0724,0837,12104,028.2,045.4,0.454,748.9,01.17,0.508
2015-01-13 02:33:00,2484E-3,5C000000,-0724,0837,12383,028.2,045.4,0.454,748.9,01.17,0.508
2015-01-13 02:34:00,2429E-3,5C000000,-0724,0838,12185,028.2,045.4,0.454,748.9,01.17,0.508
2015-01-13 02:35:00,2285E-3,5C000000,-0724,0837,12021,028.2,045.4,0.454,748.9,01.17,0.508
2015-01-13 02:36:00,2484E-3,5C000000,-0724,0836,12279,028.2,045.4,0.454,748.8,01.17,0.508
2015-01-13 02:37:00,2475E-3,5C000000,-0724,0837,12177,028.2,045.4,0.454,748.9,01.17,0.508
2015-01-13 02:38:00,2371E-3,5C000000,-0724,0838,12234,028.2,045.4,0.454,748.9,01.17,0.508
2015-01-13 02:39:00,2373E-3,5C000000,-0724,0837,12179,028.2,045.4,0.454,748.9,01.17,0.508
2015-01-13 02:40:00,2556E-3,5C000000,-0724,0837,12064,028.2,045.4,0.454,748.9,01.17,0.508
2015-01-13 02:41:00,2470E-3,5C000000,-0724,0837,12123,028.2,045.4,0.454,748.9,01.17,0.508
2015-01-13 02:42:00,2455E-3,5C000000,-0724,0837,12011,028.2,045.4,0.454,748.9,01.17,0.508
2015-01-13 02:43:00,2459E-3,5C000000,-0724,0836,12336,028.2,045.4,0.454,749.0,01.17,0.508
2015-01-13 02:44:00,2371E-3,5C000000,-0724,0836,12256,028.2,045.4,0.454,748.9,01.17,0.508
2015-01-13 02:45:00,2482E-3,5C000000,-0724,0837,12003,028.2,045.5,0.454,749.0,01.17,0.508
2015-01-13 02:46:00,2296E-3,5C000000,-0724,0837,12212,028.2,045.4,0.454,748.9,01.17,0.508
2015-01-13 02:47:00,2477E-3,5C000000,-0724,0838,11982,028.2,045.4,0.454,749.0,01.17,0.508
2015-01-13 02:48:00,2545E-3,5C000000,-0724,0838,12210,028.2,045.5,0.454,748.9,01.17,0.508
2015-01-13 02:49:00,2416E-3,5C000000,-0724,0837,12169,028.2,045.5,0.454,748.9,01.17,0.508
2015-01-13 02:50:00,2379E-3,5C000000,-0724,0836,12223,028.2,045.4,0.454,748.9,01.17,0.508
2015-01-13 02:51:00,2500E-3,5C000000,-0724,0838,12171,028.2,045.4,0.454,748.9,01.17,0.508
2015-01-13 02:52:00,2405E-3,5C000000,-0724,0837,12052,028.2,045.4,0.454,748.9,01.17,0.508
2015-01-13 02:53:00,2536E-3,5C000000,-0724,0837,12021,028.2,045.4,0.454,748.9,01.17,0.508
2015-01-13 02:54:00,2420E-3,5C000000,-0724,0837,12175,028.3,045.4,0.454,748.9,01.17,0.508
2015-01-13 02:55:00,2473E-3,5C000000,-0724,0837,12089,028.3,045.4,0.454,748.9,01.17,0.508
2015-01-13 02:56:00,2487E-3,5C000000,-0724,0836,12076,028.3,045.4,0.454,748.9,01.17,0.508
2015-01-13 02:57:00,2347E-3,5C000000,-0724,0837,12244,028.3,045.4,0.454,748.9,01.17,0.508
2015-01-13 02:58:00,2337E-3,5C000000,-0724,0836,12161,028.3,045.5,0.454,748.9,01.17,0.508
2015-01-13 02:59:00,2468E-3,5C000000,-0724,0837,12340,028.3,045.5,0.454,748.9,01.17,0.508
2015-01-13 03:00:00,2366E-3,5C000000,-0724,0837,12152,028.3,045.4,0.454,748.9,01.17,0.508
2015-01-13 03:01:00,2345E-3,5C000000,-0724,0837,12326,028.3,045.5,0.454,748.9,01.17,0.508
2015-01-13 03:02:00,2282E-3,5C000000,-0724,0836,12280,028.3,045.5,0.454,748.8,01.17,0.508
2015-01-13 03:03:00,2460E-3,5C000000,-0724,0838,12068,028.4,045.5,0.454,748.8,01.17,0.508
2015-01-13 03:04:00,2336E-3,5C000000,-0724,0837,12200,028.4,045.4,0.454,748.9,01.17,0.508
2015-01-13 03:05:00,2500E-3,5C000000,-0724,0836,12193,028.3,045.4,0.454,748.8,01.17,0.508
2015-01-13 03:06:00,2474E-3,5C000000,-0724,0837,12108,028.4,045.4,0.453,748.8,01.17,0.508
2015-01-13 03:07:00,2475E-3,5C000000,-0724,0837,12079,028.4,045.5,0.454,748.9,01.17,0.508
2015-01-13 03:08:00,2466E-3,5C000000,-0724,0837,12209,028.4,045.4,0.454,748.9,01.17,0.508
2015-01-13 03:09:00,2400E-3,5C000000,-0724,0836,12131,028.3,045.4,0.454,748.9,01.17,0.508
2015-01-13 03:10:00,2426E-3,5C000000,-0724,0837,12039,028.4,045.4,0.454,748.9,01.17,0.508
2015-01-13 03:11:00,2444E-3,5C000000,-0724,0836,12240,028.3,045.5,0.454,748.9,01.17,0.508
2015-01-13 03:12:00,2462E-3,5C000000,-0724,0838,11985,028.3,045.5,0.454,748.9,01.17,0.508
2015-01-13 03:13:00,2546E-3,5C000000,-0724,0838,12149,028.3,045.4,0.454,748.9,01.17,0.508
2015-01-13 03:14:00,2380E-3,5C000000,-0724,0837,12061,028.4,045.4,0.454,748.9,01.17,0.508
2015-01-13 03:15:00,2560E-3,5C000000,-0724,0837,12279,028.4,045.4,0.454,749.0,01.17,0.508
2015-01-13 03:16:00,2620E-3,5C000000,-0724,0837,11974,028.4,045.4,0.454,748.9,01.17,0.508
2015-01-13 03:17:00,2615E-3,5C000000,-0724,0837,12036,028.4,045.4,0.454,749.0,01.17,0.508
2015-01-13 03:18:00,2490E-3,5C000000,-0724,0836,12089,028.3,045.4,0.454,748.9,01.17,0.508
2015-01-13 03:19:00,2529E-3,5C000000,-0724,0838,12007,028.4,045.5,0.454,749.0,01.17,0.508
2015-01-13 03:20:00,2372E-3,5C000000,-0724,0837,12025,028.3,045.4,0.454,749.0,01.17,0.508
2015-01-13 03:21:00,2387E-3,5C000000,-0724,0837,12286,028.4,045.5,0.453,749.0,01.17,0.508
2015-01-13 03:22:00,2396E-3,5C000000,-0724,0838,12166,028.4,045.4,0.454,749.0,01.17,0.508
2015-01-13 03:23:00,2448E-3,5C000000,-0724,0837,12184,028.4,045.4,0.454,749.0,01.17,0.508
2015-01-13 03:24:00,2388E-3,5C000000,-0724,0837,12143,028.4,045.4,0.454,749.0,01.17,0.508
2015-01-13 03:25:00,2518E-3,5C000000,-0724,0836,12105,028.4,045.4,0.454,749.0,01.17,0.508
2015-01-13 03:26:00,2600E-3,5C000000,-0724,0836,12051,028.4,045.4,0.453,749.0,01.17,0.508
2015-01-13 03:27:00,2440E-3,5C000000,-0724,0836,11860,028.5,045.4,0.454,749.0,01.17,0.508
2015-01-13 03:28:00,2493E-3,5C000000,-0724,0838,12077,028.5,045.4,0.454,749.0,01.17,0.508
2015-01-13 03:29:00,2485E-3,5C000000,-0724,0837,12144,028.5,045.4,0.454,749.1,01.17,0.508
2015-01-13 03:30:00,2511E-3,5C000000,-0724,0837,12218,028.5,045.4,0.453,749.1,01.17,0.508
2015-01-13 03:31:00,2366E-3,5C000000,-0724,0838,12138,028.5,045.5,0.453,749.0,01.17,0.508
2015-01-13 03:32:00,2410E-3,5C000000,-0724,0838,11999,028.5,045.4,0.453,749.0,01.17,0.508
2015-01-13 03:33:00,2401E-3,5C000000,-0724,0838,12046,028.5,045.4,0.454,749.0,01.17,0.508
2015-01-13 03:34:00,2361E-3,5C000000,-0724,0837,12155,028.5,045.4,0.454,749.0,01.17,0.508
2015-01-13 03:35:00,2487E-3,5C000000,-0724,0838,12141,028.5,045.4,0.453,749.0,01.17,0.508
2015-01-13 03:36:00,2483E-3,5C000000,-0724,0837,12102,028.5,045.4,0.453,749.0,01.17,0.508
2015-01-13 03:37:00,2459E-3,5C000000,-0724,0836,11974,028.5,045.5,0.453,749.0,01.17,0.508
2015-01-13 03:38:00,2484E-3,5C000000,-0724,0837,12170,028.6,045.4,0.454,749.0,01.17,0.508
2015-01-13 03:39:00,2446E-3,5C000000,-0724,0838,11976,028.5,045.4,0.454,749.0,01.17,0.508
2015-01-13 03:40:00,2397E-3,5C000000,-0724,0838,12106,028.6,045.4,0.453,749.0,01.17,0.508
2015-01-13 03:41:00,2491E-3,5C000000,-0724,0838,12136,028.6,045.4,0.453,749.0,01.17,0.508
2015-01-13 03:42:00,2553E-3,5C000000,-0724,0838,12069,028.6,045.4,0.454,749.0,01.17,0.508
2015-01-13 03:43:00,2411E-3,5C000000,-0724,0837,11973,028.6,045.4,0.454,749.0,01.17,0.508
2015-01-13 03:44:00,2476E-3,5C000000,-0724,0836,11990,028.6,045.4,0.454,749.1,01.17,0.508
2015-01-13 03:45:00,2345E-3,5C000000,-0724,0837,12059,028.6,045.5,0.453,749.1,01.17,0.508
2015-01-13 03:46:00,2572E-3,5C000000,-0724,0838,12188,028.6,045.4,0.453,749.1,01.17,0.508
2015-01-13 03:47:00,2552E-3,5C000000,-0724,0837,12164,028.6,045.5,0.454,749.1,01.17,0.508
2015-01-13 03:48:00,2645E-3,5C000000,-0724,0837,12165,028.6,045.4,0.454,749.1,01.17,0.508
2015-01-13 03:49:00,2466E-3,5C000000,-0724,0837,12066,028.6,045.4,0.453,749.1,01.17,0.508
2015-01-13 03:50:00,2536E-3,5C000000,-0724,0837,12177,028.6,045.5,0.453,749.1,01.17,0.508
2015-01-13 03:51:00,2440E-3,5C000000,-0724,0836,12210,028.6,045.4,0.453,749.1,01.17,0.508
2015-01-13 03:52:00,2464E-3,5C000000,-0724,0838,11987,028.6,045.4,0.454,749.1,01.17,0.508
2015-01-13 03:53:00,2381E-3,5C000000,-0724,0837,12207,028.6,045.5,0.454,749.1,01.17,0.508
2015-01-13 03:54:00,2304E-3,5C000000,-0724,0837,12050,028.6,045.4,0.453,749.0,01.17,0.508
2015-01-13 03:55:00,2508E-3,5C000000,-0724,0837,12305,028.6,045.4,0.453,749.0,01.17,0.508
2015-01-13 03:56:00,2494E-3,5C000000,-0724,0838,12141,028.5,045.5,0.453,749.0,01.17,0.508
2015-01-13 03:57:00,2329E-3,5C000000,-0724,0837,12000,028.5,045.5,0.454,749.0,01.17,0.508
2015-01-13 03:58:00,2393E-3,5C000000,-0724,0837,12264,028.5,045.4,0.454,749.0,01.17,0.508
2015-01-13 03:59:00,2504E-3,5C000000,-0724,0837,12133,028.5,045.5,0.454,749.0,01.17,0.508
2015-01-13 04:00:00,2489E-3,5C000000,-0724,0836,12033,028.5,045.4,0.453,749.0,01.17,0.508
2015-01-13 04:01:00,2596E-3,5C000000,-0724,0837,12010,028.5,045.4,0.454,749.0,01.17,0.508
2015-01-13 04:02:00,2453E-3,5C000000,-0724,0839,12208,028.5,045.5,0.453,749.0,01.17,0.508
2015-01-13 04:03:00,2553E-3,5C000000,-0724,0838,12129,028.5,045.4,0.453,749.0,01.17,0.508
2015-01-13 04:04:00,2582E-3,5C000000,-0724,0837,12067,028.5,045.5,0.454,749.0,01.17,0.508
2015-01-13 04:05:00,2585E-3,5C000000,-0724,0837,12214,028.5,045.5,0.454,749.0,01.17,0.508
2015-01-13 04:06:00,2592E-3,5C000000,-0724,0838,12168,028.5,045.5,0.454,749.0,01.17,0.508
2015-01-13 04:07:00,2437E-3,5C000000,-0724,0838,12156,028.5,045.4,0.453,749.0,01.17,0.508
2015-01-13 04:08:00,2508E-3,5C000000,-0724,0837,12192,028.5,045.4,0.453,749.0,01.17,0.508
2015-01-13 04:09:00,2391E-3,5C000000,-0724,0837,12306,028.6,045.5,0.454,749.0,01.17,0.508
2015-01-13 04:10:00,2564E-3,5C000000,-0724,0838,12102,028.6,045.5,0.454,749.0,01.17,0.508
2015-01-13 04:11:00,2503E-3,5C000000,-0724,0838,12128,028.6,045.4,0.453,749.0,01.17,0.508
2015-01-13 04:12:00,2440E-3,5C000000,-0724,0837,12176,028.6,045.5,0.453,749.0,01.17,0.508
2015-01-13 04:13:00,2550E-3,5C000000,-0724,0837,12140,028.6,045.5,0.453,749.0,01.17,0.508
2015-01-13 04:14:00,2455E-3,5C000000,-0724,0837,12140,028.6,045.5,0.454,748.9,01.17,0.508
2015-01-13 04:15:00,2595E-3,5C000000,-0724,0837,12175,028.7,045.5,0.453,748.9,01.17,0.508
2015-01-13 04:16:00,2519E-3,5C000000,-0724,0837,12109,028.6,045.5,0.453,748.9,01.17,0.508
2015-01-13 04:17:00,2482E-3,5C000000,-0724,0838,12140,028.6,045.5,0.453,749.0,01.17,0.508
2015-01-13 04:18:00,2668E-3,5C000000,-0724,0838,12032,028.7,045.5,0.454,748.9,01.17,0.508
2015-01-13 04:19:00,2530E-3,5C000000,-0724,0838,12139,028.7,045.4,0.454,749.0,01.17,0.508
2015-01-13 04:20:00,2559E-3,5C000000,-0724,0837,12025,028.7,045.5,0.453,749.0,01.17,0.508